Regional Weather Roundup
Issued by NWS

Home | Current Version | Previous Version | Text Only | Print | Product List | Glossary Off
Versions: 1 2 3 4 5 6 7 8 9 10 11 12 13 14 15 16 17 18 19 20 21 22 23 24 25 26 27 28 29 30 31 32 33 34 35 36 37 38 39 40 41 42 43 44 45 46 47 48 49 50

000
ASUS45 KABQ 010710
RWRNM
WEATHER ROUNDUP FOR NEW MEXICO
NATIONAL WEATHER SERVICE ALBUQUERQUE NM
100 AM MDT MON SEP 01 2014

NOTE: "FAIR" MEANS FEW OR NO CLOUDS BELOW 12,000 FEET AGL WITH NO
       SIGNIFICANT WEATHER OR OBSTRUCTIONS TO VISION.

      THIS PRODUCT IS RELEASED AS TWO VERSIONS.  ONE VERSION NEAR
      THE TOP OF THE HOUR CONTAINING PRELIMINARY DATA FROM ALBUQUERQUE
      AND OTHER STATIONS.  A FINAL VERSION WITH ADDITIONAL DATA IS
      ISSUED ABOUT 10 MINUTES AFTER THE HOUR.

NMZ501-503-504-510>518-010800-
NORTHWEST PLATEAU/NORTHCENTRAL MOUNTAINS

CITY           SKY/WX    TMP DP  RH WIND       PRES   REMARKS
FARMINGTON     CLEAR     69  37  30 W8        30.02R
LOS ALAMOS     CLEAR     71  32  24 W18       30.18S
SANTA FE       CLEAR     61  33  35 N3        30.10S
ANGEL FIRE     FAIR      49  33  54 CALM      30.23S

$$
NMZ402-403-502-505>509-010800-
WESTCENTRAL MOUNTAINS/SOUTHWEST MOUNTAINS

CITY           SKY/WX    TMP DP  RH WIND       PRES   REMARKS
GALLUP         CLEAR     65  35  33 SW6       30.18R
SILVER CITY    CLEAR     64  37  36 N10       30.13S

$$
NMZ407-409-411-412-010800-
SOUTHERN DESERTS

CITY           SKY/WX    TMP DP  RH WIND       PRES   REMARKS
LORDSBURG      FAIR      70  39  32 MISG      30.04R
DEMING         CLEAR     74  40  29 NW10      30.01S
LAS CRUCES     CLEAR     73  36  25 NW7       30.02S
HOLLOMAN AFB   CLEAR     77  39  25 SE7       29.96S
ALAMOGORDO     CLEAR     72  39  30 E3        29.99R
T OR C         CLEAR     76  39  26 W9        30.02S

$$
NMZ519>523-010800-
CENTRAL VALLEYS/CENTRAL HIGHLANDS

CITY           SKY/WX    TMP DP  RH WIND       PRES   REMARKS
ALBUQUERQUE    PTCLDY    74  35  24 SE5       30.05R
DOUBLE EAGLE   CLEAR     68  36  30 W15       30.09S
MORIARTY ARPT  FAIR      67  34  30 W9        30.11S
CLINES CORNERS CLEAR     61  36  39 W8        30.15R
BELEN          FAIR      70  38  31 W10       30.05R
SOCORRO        FAIR      83  38  20 W14G24    30.01R

$$
NMZ524>526-539-540-010800-
SOUTHCENTRAL MOUNTAINS

CITY           SKY/WX    TMP DP  RH WIND       PRES   REMARKS
RUIDOSO        NOT AVBL

$$
NMZ527>531-010800-
NORTHEAST HIGHLANDS/NORTHEAST PLAINS

CITY           SKY/WX    TMP DP  RH WIND       PRES   REMARKS
LAS VEGAS      CLEAR     63  34  33 SW8       30.12S
RATON          CLEAR     62  32  32 N7        30.04S
CLAYTON        CLEAR     62  53  72 N8        29.97R

$$
NMZ532>537-010800-
EASTCENTRAL PLAINS

CITY           SKY/WX    TMP DP  RH WIND       PRES   REMARKS
TUCUMCARI      CLEAR     75  39  27 SW10      29.88R
CANNON AFB     CLEAR     68  44  42 S10       29.94R
CLOVIS AIRPORT   N/A     73  46  38 S14G21    29.96S

$$
NMZ028-029-538-010800-
SOUTHEAST PLAINS

CITY           SKY/WX    TMP DP  RH WIND       PRES   REMARKS
ROSWELL        CLEAR     76  46  34 W9        29.89S
CARLSBAD       CLEAR     83  59  44 S8        29.90R
HOBBS          CLEAR     77  57  50 S16G23    29.96S


$$


USA.gov is the U.S. government's official web portal to all federal, state and local government web resources and services.